archerytalk.com alexa rank chart, archerytalk.com alexa rank daily changes

archerytalk.com alexa rank chart, archerytalk.com alexa rank daily changes

archerytalk.com
Actual rank:
59 044

RANK HISTORY

Date Rank Diff
2017/01/18 59 044 +593
2017/01/17 58 451 +625
2017/01/16 57 826 -206
2017/01/15 58 032 +417
2017/01/14 57 615 +699
2017/01/13 56 916 +90
2017/01/12 56 826 +523
2017/01/11 56 303 -680
2017/01/10 56 983 +941
2017/01/09 56 042 -515
2017/01/08 56 557 +486
2017/01/07 56 071 +70
2017/01/06 56 001 -621
2017/01/05 56 622 +780
2017/01/04 55 842 -333
2017/01/03 56 175 -293
2017/01/02 56 468 -5
2017/01/01 56 473 -468
2016/12/31 56 941 -341
2016/12/30 57 282 -436
2016/12/29 57 718 -1 114
2016/12/28 58 832 +363
2016/12/27 58 469 -409
2016/12/26 58 878 -475
2016/12/25 59 353 +138
2016/12/24 59 215 -200
2016/12/23 59 415 -207
2016/12/22 59 622 +377
2016/12/21 59 245 +81
2016/12/20 59 164 -343
2016/12/19 59 507 +476
2016/12/18 59 031 +522
2016/12/17 58 509 -656
2016/12/16 59 165 +603
2016/12/15 58 562 +302
2016/12/14 58 260 -478
2016/12/13 58 738 -92
2016/12/12 58 830 -356
2016/12/11 59 186 +668
2016/12/10 58 518 -258
2016/12/09 58 776 +251
2016/12/08 58 525 +102
2016/12/07 58 423 +1 570
2016/12/06 56 853 +747
2016/12/05 56 106 -475
2016/12/04 56 581 +546
2016/12/02 56 035 +568
2016/12/01 55 467 -238
2016/11/30 55 705 +47
2016/11/29 55 658 +674
2016/11/28 54 984 +192
2016/11/27 54 792 -402
2016/11/26 55 194 +429
2016/11/25 54 765 +507
2016/11/24 54 258 +782
2016/11/23 53 476 -504
2016/11/19 53 980

WIDGET FOR YOUR SITE

DOMAINS WITH THE NEAREST RANK

Domain Rank
usasexguide.info 59 039
1024mx.trade 59 040
targetphoto.com 59 041
antennabank.com 59 042
mydomain.com 59 043
archerytalk.com 59 044
zdfans.com 59 045
myanmarportal.net 59 046
mysomali.com 59 047
studyinkorea.go.kr 59 048
5000pk.com 59 049

DOMAINS WITH THE NEAREST RANK BY TLD .com

Domain Rank
karmicfun.com 59 035
bpm-power.com 59 037
targetphoto.com 59 041
antennabank.com 59 042
mydomain.com 59 043
archerytalk.com 59 044
zdfans.com 59 045
mysomali.com 59 047
5000pk.com 59 049
vaporbeast.com 59 052
playnewz.com 59 053